Location: Beverley
(50.2667°N, 107.9667°W)
Time: 23:16:40
(UTC+00:00)

Envisat - Pass Details

Date: 23 January 2022
Orbit: 764 x 765 km, 98.2° (Epoch: 22 May)

Event Time Altitude Azimuth Distance (km) Brightness Sun altitude
Rises 11:08:57 0° 23° (NNE) 3,243 6.7 -36.1°
Reaches altitude 10° 11:11:41 10° 37° (NE) 2,311 6.0 -35.7°
Maximum altitude 11:15:49 25° 92° (E) 1,526 5.0 -35.1°
Drops below altitude 10° 11:19:56 10° 146° (SSE) 2,298 5.7 -34.4°
Sets 11:22:38 0° 160° (SSE) 3,219 6.3 -34.0°
